TimeIST,TemperatureF,Dew PointF,Humidity,Sea Level PressureIn,VisibilityMPH,Wind Direction,Wind SpeedMPH,Gust SpeedMPH,PrecipitationIn,Events,Conditions,WindDirDegrees,DateUTC
12:00 AM,48.2,46.4,93,29.47,6.2,WSW,21.9,-,N/A,,Mostly Cloudy,240,2013-06-14 23:00:00
12:30 AM,48.2,44.6,87,29.50,6.2,WSW,19.6,-,N/A,,Mostly Cloudy,240,2013-06-14 23:30:00
1:00 AM,48,44,81,29.52,12,SW,13.4,,,,Partly Cloudy,230,2013-06-15 00:00:00
1:00 AM,48.2,44.6,87,29.50,6.2,SW,15.0,-,N/A,,Mostly Cloudy,230,2013-06-15 00:00:00
1:30 AM,48.2,44.6,87,29.50,6.2,SW,11.5,-,N/A,,Scattered Clouds,230,2013-06-15 00:30:00
2:00 AM,46.4,44.6,93,29.50,6.2,SW,11.5,-,N/A,,Scattered Clouds,220,2013-06-15 01:00:00
2:30 AM,46.4,42.8,87,29.53,6.2,SW,16.1,-,N/A,,Scattered Clouds,230,2013-06-15 01:30:00
3:00 AM,46.4,42.8,87,29.50,6.2,SW,16.1,-,N/A,,Scattered Clouds,230,2013-06-15 02:00:00
3:30 AM,46.4,42.8,87,29.50,6.2,SW,15.0,-,N/A,,Scattered Clouds,230,2013-06-15 02:30:00
4:00 AM,46.4,42.8,87,29.53,6.2,SW,15.0,-,N/A,,Scattered Clouds,230,2013-06-15 03:00:00
4:30 AM,44.6,42.8,93,29.53,6.2,SW,15.0,-,N/A,,Scattered Clouds,230,2013-06-15 03:30:00
5:00 AM,44.6,42.8,93,29.53,6.2,SW,13.8,-,N/A,,Scattered Clouds,230,2013-06-15 04:00:00
5:30 AM,44.6,41.0,87,29.53,6.2,SW,15.0,-,N/A,,Scattered Clouds,220,2013-06-15 04:30:00
6:00 AM,46.4,41.0,81,29.53,6.2,SW,13.8,-,N/A,,Partly Cloudy,220,2013-06-15 05:00:00
6:30 AM,46.4,41.0,81,29.53,6.2,SW,13.8,-,N/A,,Partly Cloudy,230,2013-06-15 05:30:00
7:00 AM,47,42,77,29.56,19,SW,15.7,,,,Scattered Clouds,230,2013-06-15 06:00:00
7:00 AM,46.4,42.8,87,29.53,6.2,SW,15.0,-,N/A,,Partly Cloudy,230,2013-06-15 06:00:00
7:30 AM,48.2,42.8,82,29.53,6.2,SW,13.8,-,N/A,,Partly Cloudy,230,2013-06-15 06:30:00
8:00 AM,48.2,42.8,82,29.53,6.2,SW,16.1,-,N/A,,Partly Cloudy,230,2013-06-15 07:00:00
8:30 AM,50.0,44.6,82,29.56,6.2,SW,16.1,-,N/A,,Scattered Clouds,230,2013-06-15 07:30:00
9:00 AM,51.8,44.6,76,29.56,6.2,WSW,16.1,-,N/A,,Scattered Clouds,240,2013-06-15 08:00:00
9:30 AM,53.6,46.4,77,29.56,6.2,WSW,17.3,-,N/A,,Scattered Clouds,240,2013-06-15 08:30:00
10:00 AM,53.6,44.6,72,29.56,6.2,WSW,20.7,-,N/A,,Scattered Clouds,240,2013-06-15 09:00:00
10:30 AM,55.4,44.6,67,29.56,6.2,WSW,18.4,-,N/A,,Scattered Clouds,240,2013-06-15 09:30:00
11:00 AM,55.4,44.6,67,29.56,6.2,WSW,18.4,-,N/A,,Scattered Clouds,240,2013-06-15 10:00:00
11:30 AM,57.2,44.6,63,29.56,6.2,SW,19.6,-,N/A,,Scattered Clouds,230,2013-06-15 10:30:00
12:00 PM,57.2,46.4,67,29.56,6.2,WSW,18.4,-,N/A,,Scattered Clouds,240,2013-06-15 11:00:00
12:30 PM,57.2,44.6,63,29.56,6.2,WSW,18.4,-,N/A,,Scattered Clouds,240,2013-06-15 11:30:00
1:00 PM,59,47,56,29.57,31,WSW,17.9,,,,Partly Cloudy,250,2013-06-15 12:00:00
1:00 PM,59.0,46.4,63,29.56,6.2,WSW,16.1,-,N/A,,Scattered Clouds,250,2013-06-15 12:00:00
1:30 PM,59.0,46.4,63,29.56,6.2,WSW,16.1,-,N/A,,Scattered Clouds,240,2013-06-15 12:30:00
2:00 PM,60.8,46.4,59,29.56,6.2,WSW,15.0,-,N/A,,Scattered Clouds,240,2013-06-15 13:00:00
2:30 PM,60.8,48.2,63,29.56,6.2,SW,17.3,-,N/A,,Scattered Clouds,230,2013-06-15 13:30:00
3:00 PM,60.8,46.4,59,29.56,6.2,WSW,17.3,-,N/A,,Mostly Cloudy,240,2013-06-15 14:00:00
3:30 PM,59.0,48.2,67,29.56,6.2,West,16.1,-,N/A,Rain,Light Rain Showers,270,2013-06-15 14:30:00
4:00 PM,62.6,42.8,48,29.56,6.2,West,21.9,33.4,N/A,,Scattered Clouds,260,2013-06-15 15:00:00
4:30 PM,64.4,44.6,49,29.56,6.2,West,23.0,-,N/A,,Scattered Clouds,260,2013-06-15 15:30:00
5:00 PM,62.6,46.4,55,29.56,6.2,WSW,20.7,-,N/A,,Scattered Clouds,240,2013-06-15 16:00:00
5:30 PM,62.6,46.4,55,29.56,6.2,WSW,18.4,-,N/A,,Scattered Clouds,250,2013-06-15 16:30:00
6:00 PM,60.8,48.2,63,29.59,6.2,WSW,19.6,-,N/A,,Scattered Clouds,240,2013-06-15 17:00:00
6:30 PM,60.8,50.0,68,29.56,6.2,WSW,23.0,-,N/A,,Scattered Clouds,240,2013-06-15 17:30:00
7:00 PM,59,50,65,29.60,25,WSW,22.4,,,,Partly Cloudy,240,2013-06-15 18:00:00
7:00 PM,59.0,50.0,72,29.59,6.2,WSW,23.0,-,N/A,,Scattered Clouds,240,2013-06-15 18:00:00
7:30 PM,57.2,48.2,72,29.59,6.2,WSW,24.2,-,N/A,,Scattered Clouds,250,2013-06-15 18:30:00
8:00 PM,57.2,48.2,72,29.62,6.2,WSW,23.0,-,N/A,,Scattered Clouds,250,2013-06-15 19:00:00
8:30 PM,57.2,48.2,72,29.62,6.2,WSW,20.7,-,N/A,,Scattered Clouds,250,2013-06-15 19:30:00
9:00 PM,55.4,48.2,77,29.65,6.2,WSW,26.5,-,N/A,,Scattered Clouds,250,2013-06-15 20:00:00
9:30 PM,53.6,50.0,88,29.65,6.2,West,21.9,-,N/A,,Scattered Clouds,260,2013-06-15 20:30:00
10:00 PM,53.6,50.0,88,29.68,6.2,WSW,18.4,-,N/A,,Scattered Clouds,250,2013-06-15 21:00:00
10:30 PM,53.6,48.2,82,29.71,6.2,WSW,18.4,29.9,N/A,,Scattered Clouds,250,2013-06-15 21:30:00
11:00 PM,53.6,50.0,88,29.71,6.2,WSW,17.3,-,N/A,,Mostly Cloudy,250,2013-06-15 22:00:00
11:30 PM,53.6,50.0,88,29.71,6.2,WSW,16.1,-,N/A,,Mostly Cloudy,250,2013-06-15 22:30:00